Home   Weather   Rapid City   Past weeks

Flag for USA Past Weather in Rapid City, South Dakota, USA — Yesterday and Last 2 Weeks

Now
55 °F

Mostly cloudy.


Feels Like: 48 °F
Forecast: 44 / 62 °F
Wind: 33 mph from Northwest

Location: Ellsworth Air Force Base

Current Time: Sep 25, 2016 at 1:11:48 AM

Latest Report: Sep 24, 2016 at 11:58 PM


Visibility: 10 mi

Pressure: 30.04 "Hg (26.73 "Hg at 977m altitude)

Humidity: 59%

Dew Point: 40 °F

Location of Rapid CityLocation

Past Weather in Rapid City — Graph

°F

Rapid City Temperature Yesterday

Maximum temperature yesterday: 66 °F (at 2:58 PM)
Minimum temperature yesterday: 51 °F (at 8:58 PM)
Average temperature yesterday: 58 °F

High & Low Weather Summary for the Past Weeks

 TemperatureHumidityPressure
High89 °F (Sep 11, 3:58 PM)100% (Sep 22, 7:58 PM)30.33 "Hg (Sep 22, 7:58 PM)
Low40 °F (Sep 14, 3:58 AM)14% (Sep 11, 4:58 PM)29.65 "Hg (Sep 23, 5:58 PM)
Average61 °F62%29.97 "Hg
* Reported Sep 9 11:58 PM — Sep 24 11:58 PM, Rapid City, Weather by CustomWeather, © 2016

Note: Actual official high and low records may vary slightly from our data, if they occured in-between our weather recording intervals... More about our weather records

Advertising

Rapid City Weather History for the Previous 24 Hours

Scroll right to see more
 ConditionsComfort  
Time TempWeatherWind HumidityBarometerVisibility
11:58 PM
Sat, Sep 24
55 °FMostly cloudy.33 mph59%30.04 "Hg10 mi
10:58 PM54 °FOvercast.25 mph58%30.01 "Hg10 mi
9:58 PM53 °FPartly cloudy.26 mph66%30.00 "Hg10 mi
8:59 PM52 °FMostly cloudy.21 mph72%30.00 "Hg10 mi
8:58 PM51 °FLight rain. Mostly cloudy.22 mph74%29.99 "Hg10 mi
7:58 PM53 °FMostly cloudy.12 mph58%29.99 "Hg10 mi
6:58 PM54 °FPassing clouds.23 mph55%29.96 "Hg10 mi
5:58 PM55 °FPassing clouds.20 mph51%29.92 "Hg10 mi
4:58 PM57 °FSunny.18 mph51%29.89 "Hg10 mi
3:58 PM62 °FPassing clouds.21 mph46%29.84 "Hg10 mi
2:58 PM66 °FScattered clouds.16 mph43%29.80 "Hg10 mi
1:58 PM66 °FSunny.14 mph45%29.80 "Hg10 mi
12:58 PM63 °FScattered clouds.17 mph49%29.80 "Hg10 mi
11:58 AM65 °FPassing clouds.13 mph48%29.78 "Hg10 mi
10:58 AM63 °FPassing clouds.15 mph50%29.78 "Hg10 mi
9:58 AM61 °FSunny.14 mph55%29.75 "Hg10 mi
8:58 AM58 °FSunny.12 mph65%29.75 "Hg10 mi
7:58 AM54 °FSunny.8 mph79%29.74 "Hg10 mi
7:03 AM55 °FMore clouds than sun.9 mph88%29.77 "Hg10 mi
6:58 AM55 °FCloudy.9 mph88%29.73 "Hg10 mi
5:58 AM56 °FDrizzle. Low clouds.14 mph100%29.73 "Hg7 mi
4:59 AM57 °FLight rain. Overcast.12 mph100%29.75 "Hg10 mi
4:58 AM56 °FOvercast.9 mph99%29.71 "Hg10 mi
3:58 AM57 °FOvercast.16 mph100%29.69 "Hg10 mi
2:58 AM58 °FOvercast.16 mph97%29.71 "Hg10 mi
1:58 AM59 °FOvercast.17 mph100%29.72 "Hg10 mi
Weather by CustomWeather, © 2016

See weather overviewHow to use our weather pages